www.pogodaiklimat.ru

Погода и климат >> Архив погоды >> Россия >> Красноярский край >> Светлолобово


ПОГОДА в Светлолобово

  • Прогноз погоды в Светлолобово
  • Монитор погоды в Светлолобово

АРХИВ ПОГОДЫ в Светлолобово

Время (UTC), дата Ветер
(напр.,м/с)
 
Видим.   Явления Облачность Т
(С)
Тd
(С)
f
(%)
Тe
(С)
Тes
(С)
Комфортность P
(гПа)
Po
(гПа)
Тmin
(С)
Tmax
(С)
R
(мм)
R24
(мм)
S
(см)
21 15.04 СВ 1 20 км 8/0
[Ci fib]
-3.8 -7.6 75 -6 -6 1005.5 965.1
00 16.04 СВ 1 20 км 8/0
[Ci sp]
-3.8 -8.2 71 -6 -5 1005.3 965.0 -5.1 4
03 16.04 СВ 3 50 км 6/0
[Ci fib]
+0.2 -9.2 49 -4 +2 1005.3 965.5
06 16.04 СВ 2 50 км 4/0
[Ci sp]
+3.4 -9.3 39 +1 +12 опасность
простуды
1006.9 967.5
09 16.04 З 3 50 км 3/0
[Ci sp]
+4.9 -9.0 36 +2 +8 1007.7 968.5
12 16.04 СЗ 2 50 км 6/0
[Ci fib]
+4.4 -11.1 31 +3 +3 1009.8 970.4 +5.2
15 16.04 штиль 0 20 км ясно -3.4 -6.4 80 -4 -4 1012.7 972.1
18 16.04 ЮЗ 1 20 км ясно -5.5 -7.3 87 -8 -8 1014.1 973.1
21 16.04 З 1 20 км ясно -4.9 -7.5 82 -7 -7 1015.2 974.3
00 17.04 ЮЗ 3 20 км 3/0
[Ci fib]
-1.5 -5.3 75 -6 -6 1015.6 975.2 -7.0 0
03 17.04 Ю 3 50 км 6/0
[Ci fib]
+2.9 -4.6 58 -1 +5 1014.2 974.5
06 17.04 Ю 6-10
{11}
50 км 8/0
[Ci fib]
+6.4 -5.8 41 +3 +6 1012.3 973.2
09 17.04 ЮВ 6-10
{13}
50 км 6/3 600 м
[Cb cap Ci fib]
+8.2 -6.3 35 +5 +7 1009.5 970.6
12 17.04 Ю 6
{11}
50 км 4/0
[Ci fib]
+6.8 -6.1 39 +3 +3 1007.9 968.9 +9.0
15 17.04 ЮЗ 3 20 км 3/0
[Ci fib]
+0.6 -6.2 60 -3 -3 1008.2 968.4
18 17.04 ЮВ 3 20 км 8/0
[Ci fib]
+1.4 -5.9 58 -2 -2 1006.4 966.7
21 17.04 Ю 7
{11}
н/о н/о +1.3 -6.5 56 -5 -5 1002.4 962.9
00 18.04 Ю 10-13
{13}
20 км 8/6
[Cb cap Ci fib]
+3.5 -4.8 55 -3 -3 997.2 958.2 -2.7
03 18.04 Ю 10-14
{14}
20 км 9/8 600 м
[Cb cap Ci fib]
+5.5 -2.1 58 -0 -0 992.8 954.3
06 18.04 ЮЗ 13-20
{24}
20 км {ливн. осадки} 8/6 600 м
[Cb cap Ci fib]
+4.8 -2.4 60 -2 -2 995.3 956.9
09 18.04 З 12-20
{25}
20 км {ливн. осадки, метель} 8/8 600 м
[Cb cap]
+2.4 -6.4 52 -5 -5 1003.4 964.0
12 18.04 З 8-13
{22}
20 км {ливн. осадки, метель} 6/6 600 м
[Cb cap]
-1.2 -11.4 46 -8 -8 1009.8 969.6 +5.7 0.0
15 18.04 З 7-10
{17}
20 км 4/4 600 м
[Cb cap]
-6.4 -13.9 55 -15 -15 1015.9 974.7
18 18.04 З 10-15
{19}
20 км 4/0
[Ci fib]
-8.2 -14.4 61 -18 -18 1020.0 978.4
21 18.04 З 8-13
{15}
20 км 8/0
[Ci fib]
-6.4 -14.5 53 -15 -15 1021.9 980.5
00 19.04 З 8-14
{16}
20 км 9/6 600 м
[Cb cap Ci fib]
-5.6 -13.8 52 -14 -14 1024.9 983.4 -8.4
03 19.04 З 8-14
{16}
20 км 8/4 600 м
[Cb cap Ci fib]
-3.1 -13.7 44 -11 -10 1027.0 985.9
06 19.04 З 7-12
{15}
20 км 3/3 600 м
[Cb cap]
+0.3 -16.0 28 -6 -3 1027.4 986.8
09 19.04 З 5
{14}
50 км 3/3 600 м
[Cb cap]
+1.7 -15.0 28 -3 -0 1026.3 985.9
12 19.04 З 3 50 км 3/3 600 м
[Cb cap]
+1.1 -14.3 31 -2 -2 1024.7 984.2 +2.1
15 19.04 В 1 20 км 4/0
[Ci fib]
-4.6 -12.4 54 -6 -6 1024.5 983.3
18 19.04 штиль 0 20 км 4/0
[Ci fib]
-9.1 -12.6 76 -10 -10 1022.9 981.1
21 19.04 штиль 0 20 км 6/0
[Ci fib]
-10.5 -12.3 87 -11 -11 1021.4 979.4
00 20.04 З 1 20 км 8/0
[Ci fib]
-8.6 -11.1 82 -11 -10 1019.3 977.7 -11.1
03 20.04 СВ 2 50 км 6/0
[Ci fib]
+0.1 -9.1 50 -3 +4 1016.1 975.9
06 20.04 СВ 1 50 км 8/0
[Ci fib]
+4.5 -12.4 28 +4 +16 опасность
простуды
1013.2 973.7
09 20.04 ЮВ 3 50 км 8/0
[Ci fib]
+6.7 -12.7 24 +5 +10 1010.4 971.3
12 20.04 Ю 1 20 км 8/4 1000 м
[Sc Ci fib]
+6.0 -12.9 24 +6 +6 1009.5 970.3 +7.1
15 20.04 ЮВ 1 20 км 8/0
[Ci fib]
-1.5 -10.3 51 -3 -3 1009.8 969.6
18 20.04 З 1 20 км 6/0
[Ci fib]
-2.0 -8.9 59 -4 -4 1009.5 969.2
21 20.04 ЮЗ 2 20 км 4/0
[Ci fib]
-2.3 -8.8 61 -6 -6 1009.9 969.5
00 21.04 З 2 20 км 9/9 600 м
[Cb cap]
-1.4 -7.6 63 -5 -5 1010.4 970.2 -3.6
03 21.04 З 3 20 км 8/8 600 м
[Cb cap]
+2.6 -9.6 40 -1 +1 1010.4 970.7
06 21.04 З 6-10
{11}
50 км 8/5 600 м
[Cb cap Ci fib]
+5.9 -9.5 32 +2 +4 1010.5 971.3
09 21.04 З 6-10
{13}
20 км 8/6 600 м
[Cb cap Ci fib]
+7.0 -9.6 30 +3 +4 1010.6 971.5
12 21.04 СЗ 2
{15}
20 км в посл. час ливневой снег 8/8 600 м
[Cb cap]
+0.4 -0.0 97 -3 -3 1014.6 974.5 +7.6 0.0
15 21.04 З 4 20 км {ливн. осадки} 8/8 600 м
[Cb cap]
0.0 -2.7 82 -5 -5 1017.0 976.7
18 21.04 СЗ 2 20 км {ливн. осадки} 8/8 600 м
[Cb cap]
-2.8 -5.1 84 -7 -7 1020.4 979.6
21 21.04 Ю 1 20 км 8/0
[Ci fib]
-6.5 -8.6 85 -9 -9 1022.6 981.1
00 22.04 штиль 0 50 км ясно -5.4 -8.4 79 -6 -5 1024.4 983.1 -8.6 0.0
03 22.04 СЗ 2 50 км ясно -0.6 -9.0 53 -4 +4 1025.2 984.5
06 22.04 СЗ 1 50 км 3/0
[Ci fib]
+3.3 -11.7 32 +3 +17 опасность
простуды
1024.5 984.4
09 22.04 СЗ 2 50 км 3/0
[Ci fib]
+6.2 -11.9 26 +5 +12 1023.7 984.0
12 22.04 СЗ 2 50 км ясно +6.0 -12.1 26 +5 +5 1023.5 983.8 +6.5
15 22.04 штиль 0 20 км ясно -3.8 -11.1 57 -4 -4 1026.1 984.9

 

Местоположение метеостанции Светлолобово (Красноярский край, Россия): широта 55.10 долгота 90.83 высота над уровнем моря 325 м.

В архиве по умолчанию представлена погода в Светлолобово за последнюю неделю. Архивные данные за месяц целиком и за предыдущие месяцы, начиная с января 2011 года, Вы можете получить, выбрав интересующий диапазон дат из раскрывающегося списка и нажав кнопку "Ввод!".


*Определитесь, кто Вы:
робот инопланетянин человек

Внимание! Время в таблицах - всемирное. Для получения местного времени необходимо прибавить поправку, которая равна 7 ч.

Смотрите также архив погоды в соседних городах и на ближайших метеорологических станциях:

Погода в Первомайском (Хакасия, Россия) (58 км)
Погода в Балахте (Красноярский край, Россия) (62 км)
Погода в Копьево-2 (Хакасия, Россия) (63 км)
Погода в Ужуре (Красноярский край, Россия) (68 км)
Погода в Шире (Хакасия, Россия) (88 км)
Погода в Назарово (Красноярский край, Россия) (108 км)
Погода в Лебяжьем (Красноярский край, Россия) (111 км)
Погода в Шарыпово (Красноярский край, Россия) (114 км)
Погода в Идринском (Красноярский край, Россия) (116 км)
Погода в Кемчуге (Красноярский край, Россия) (123 км)

Пояснения к столбцам:

Ветер - указаны скорость ветра в м/с - средняя за 10 мин, порывы в срок и между сроками (в фигурных скобках) и направление, откуда дует ветер: С - северный, СВ - северо-восточный, В - восточный, ЮВ - юго-восточный, Ю - южный, ЮЗ - юго-западный, З - западный, СЗ - северо-западный.
Видимость - горизонтальная дальность видимости в метрах или километрах. При видимости от 1 до 10 км при отсутствии осадков обычно наблюдается дымка, при ухудшении видимости до 1 км и менее - туман. В сухую погоду видимость может ухудшаться дымом, пылью или мглою.
Явления - указаны атмосферные явления, наблюдавшиеся в срок или в последний час перед сроком; фигурными скобками обозначены явления, наблюдавшиеся между сроками (за 1-3 часа до срока); квадратными скобками обозначены град или гололедные отложения с указанием их диаметра в мм.
Облачность - указаны через наклонную черту общая и нижняя облачность в баллах и высота нижней границы облаков в метрах; квадратными скобками обозначены формы облаков: Ci - перистые, Cs - перисто-слоистые, Cc - перисто-кучевые, Ac - высококучевые, As - высокослоистые, Sc - слоисто-кучевые, Ns - слоисто-дождевые, Cu - кучевые, Cb - кучево-дождевые. Подробнее классификацию облаков см. в Атласе облаков (PDF).
T - Температура воздуха - температура, измеренная на высоте 2 м над землей.
Td - Температура точки росы - температура, при понижении до которой содержащийся в воздухе водяной пар достигнет насыщения.
f - Относительная влажность воздуха - влажноcть воздуха, измеренная на высоте 2 м над землей.
Te - Эффективная температура - температура, которую ощущает одетый по сезону человек в тени. Характеристика душности погоды. При расчете учитывается влияние влажности воздуха и скорости ветра на теплоощущения человека.
Tes - Эффективная температура на солнце - температура, которую ощущает человек, с поправкой на солнечный нагрев. Характеристика знойности погоды. Зависит от высоты солнца над горизонтом, облачности и скорости ветра. Ночью, в пасмурную погоду, а также при ветре 12 м/с и более поправка равна нулю.
P - Атмосферное давление - приведенное к уровню моря атмосферное давление.
Po - Атмосферное давление - измеренное на уровне метеостанции атмосферное давление.
Tmin - Минимальная температура - минимум температуры воздуха на высоте 2 м над землей.
Tmax - Максимальная температура - максимум температуры воздуха на высоте 2 м над землей.
R - Количество осадков - Количество выпавших осадков за период времени, мм. При наведении курсора мыши на число - период времени, за который выпало указанное количество осадков.
R24 - Количество осадков - Количество выпавших осадков за 24 часа, мм.
S - Снежный покров - Высота снежного покрова, см. При наведении курсора мыши на число - состояние снежного покрова и степень покрытия местности в баллах.